Location: Waco, TX
(31.5480°N, 97.1670°W)
Time: 10:32:19
(UTC-05:00)

ISS - Pass Details

Date: 22 May 2018
Orbit: 402 x 407 km, 51.6° (Epoch: 27 May)

Event Time Altitude Azimuth Distance (km) Brightness Sun altitude
Rises 03:52:01 0° 334° (NNW) 2,315 0.3 -27.3°
Reaches altitude 10° 03:55:11 10° 8° (N) 1,453 -0.3 -26.8°
Maximum altitude 03:56:31 12° 32° (NNE) 1,338 -0.3 -26.7°
Drops below altitude 10° 03:57:52 10° 57° (ENE) 1,451 -0.1 -26.5°
Sets 04:01:00 0° 90° (E) 2,307 0.6 -26.0°
